User: anonymous   Login
Location: ?
(35.4214°N, 139.3011°E)
Time: 22:16:44
(UTC+00:00)
Language:

Cosmos 2278 Rocket - Orbit

View from above orbital plane
View from above orbital plane
View from above satellite
View from above satellite

Ground track
Ground track

The orbit data is extracted from the following two-line orbital elements,

1 23088U 94023B   20263.51417370 +.00000203 +00000-0 +12996-3 0  9995
2 23088 070.9976 303.6955 0001188 095.0039 265.1219 14.14687125363610
Epoch (UTC): 19 September 2020 12:20:24
Eccentricity: 0.0001188
inclination: 70.9976°
perigee height: 842 km
apogee height: 844 km
right ascension of ascending node: 303.6955°
argument of perigee: 95.0039°
revolutions per day: 14.14687125
mean anomaly at epoch: 265.1219°
orbit number at epoch: 36361

The dashed part of the orbit path shows where the satellite is in the earth's shadow,  

DLR